FLOCK 2E'-16 (41763 NORAD) Tracking and Keplerian Element Data

This shows tracking and keplerian element data for the satellite.

Feedback or suggestion? Click here.




ElementValue
Catalog41763
NameFLOCK 2E'-16
Epoch Orbit9779
Epoch Day152.14364457
Epoch Year2018
RAAN41.4007
Inclination51.6065
Eccentricity0.0012067
Argument of Perigee257.683
Mean Anonmoly102.5693
Mean Motion16.39967936
Decay Rate0.17380796
L11 41763U 98067KK 18152.14364457 .17380796 12355-4 12196-2 0 9994
L22 41763 51.6065 41.4007 0012067 257.6830 102.5693 16.39967936 97796

Live tracking and technical data element details for FLOCK 2E'-16 (NORAD 41763). FLOCK 2E'-16 can be tracked NOW for your location showing map with azimuth and elevation plus other details from your city location.

Track the satellite on the map from your city or location and see movement details for azimuth, elevation, latitude, longitude, range, height, and movement on the map or in text.







IsCatalogInMostPopularTable: catalog: 41763, numindb: 83
Update: records affected: 1



GetName: 41763 FLOCK 2E'-16

Hit Count: updated at: Wed, 18 Jul 2018 20:27:45 GMT